sat.trackr.live / text

‹ back to catalog

FLOCK 4G-30

NORAD 62679 · 2025-009BY

PAYLOAD ACTIVE UNKNOWN

§ Identity

Operator
Country
US
Launch date
2025-01-14
Launch site
AFWTR
Launch vehicle
Mass (kg)
RCS (m²)

Purposes: earth_obs

External: N2YO · Heavens-Above · Gunter

§ Orbital elements

Epoch: 2026-09-19T11:31:28.884288Z

Period
93.58 min
Inclination
97.3845°
Eccentricity
0.0001809
Mean motion
15.38830586 rev/d
Perigee alt
448.3 km
Apogee alt
450.8 km
Semi-major
6,827.7 km
B*
8.7667e-4
RAAN
344.0217°
Arg perigee
356.3566°
Mean anomaly
3.7666°
Rev number
15,101

§ Raw data

FLOCK 4G-301 62679U 25009BY  26262.48019542  .00033690  00000+0  87667-3 0  99942 62679  97.3845 344.0217 0001809 356.3566   3.7666 15.38830586151014

JSON: /api/v1/satellites/62679 · /tle

For live sub-satellite position, see the globe view (requires WebGL).

§ Visibility from observer

Set your observer location to see the next 7 days of passes ≥ 10°. The values pass through the URL so the page stays shareable.

No JS? Fill the form by hand. The geolocation button needs JavaScript.